星链-4299 (STARLINK-4299 )

导读 | 豆包AI

STARLINK-4299是美国SpaceX公司星链(Starlink)互联网卫星星座中的一员,于2022年7月17日发射升空。该卫星运行在近地轨道,属于星链Group 4批次组网卫星,质量约297千克,主要为全球尤其是基础设施匮乏区域提供高速低延迟宽带互联网服务,是SpaceX构建全球卫星互联网计划的重要组成部分。

基本信息
目录编号:
53172
目录名称:
STARLINK-4299
国际标识:
2022-083AS
轨道中心:
EARTH
卫星名称:
星链-4299
卫星全名:
星链-4299 (STARLINK-4299 )
卫星状态:
在轨 (已飞行1383 天)
发射日期:
2022-07-17 UTC
国别 :
美国 (US)
星等 :
--
轨道信息
数据来源 国际轨道数据 AOE轨道数据
星历时间 2026-04-30T02:46:13+0800
1天前
查看轨道信息
2026-04-30T07:00:00+0800
20小时前
查看轨道信息
半长轴 6917.864km 6917.893km
偏心率 0.0001175 0.0001162
轨道倾角 53.218° 53.214°
近地点辐角 88.188° 87.661°
升交点赤经 289.669° 288.878°
平近点角 271.924° 150.274°
近地点 538.914km 538.952km
远地点 540.54km 540.56km
周期 95.437分钟 95.438分钟
每日圈数 15.088456 15.08836
详细信息
固有亮度:
5
最大亮度:
2.5
卫星平台:
Starlink v1.5
覆盖范围:
全球
运营商:
太空探索技术公司
运营商所在国:
美国
制造商(研发单位):
太空探索技术公司
制造商所在国:
美国
使用方式:
暂无
卫星简介
星链(Starlink)计划是由太空探索技术公司(SpaceX)提出的一个巨型低轨卫星互联网星座项目,计划在2019年至2024年间在太空搭建由约1.2万颗卫星组成的“星链”网络,其中1584颗将部署在地球上空550千米处的近地轨道,并从2020年开始工作。该卫星仍在工作。
2D轨道图
3D轨道图
轨道高度分析图
轨道倾角分析图
轨道综合分析图
查看轨道综合分析图